AFR24ZK LFPG-LFLL

Flight info

Callsign AFR24ZK
Flight time 0h 45m
Altitude 27000
Route OKASI DCT OKEKO DCT OKEPI DCT MOU
Aircraft A320/M-SDE2E3FGIJ1RWY/HB1

Departure

Time 2026-05-05 19:28
Airport Charles de Gaulle International Airport (LFPG)

Arrival

Time 2026-05-05 20:14
Airport Lyon Saint-Exupéry Airport (LFLL)
Time Latitude Longitude Altitude Speed Heading
2026-05-05 18:38 49.00704 2.57767 360 ft 0 kts 126°
2026-05-05 19:15 49.00705 2.57765 354 ft 2 kts 126°
2026-05-05 19:15 49.00720 2.57733 358 ft 4 kts 126°
2026-05-05 19:15 49.00734 2.57702 362 ft 3 kts 126°
2026-05-05 19:15 49.00750 2.57677 359 ft 4 kts 169°
2026-05-05 19:16 49.00769 2.57686 362 ft 4 kts 238°
2026-05-05 19:16 49.00778 2.57720 363 ft 2 kts 264°
2026-05-05 19:16 49.00778 2.57722 362 ft 0 kts 265°
2026-05-05 19:18 49.00776 2.57679 362 ft 9 kts 266°
2026-05-05 19:18 49.00808 2.57588 354 ft 10 kts 331°
2026-05-05 19:19 49.00861 2.57546 358 ft 7 kts 314°
2026-05-05 19:19 49.00874 2.57473 358 ft 8 kts 271°
2026-05-05 19:19 49.00869 2.57387 354 ft 10 kts 264°
2026-05-05 19:19 49.00860 2.57258 354 ft 14 kts 264°
2026-05-05 19:20 49.00853 2.57098 354 ft 16 kts 266°
2026-05-05 19:20 49.00845 2.56941 354 ft 13 kts 265°
2026-05-05 19:20 49.00838 2.56817 359 ft 10 kts 266°
2026-05-05 19:20 49.00834 2.56742 354 ft 6 kts 265°
2026-05-05 19:21 49.00829 2.56646 354 ft 12 kts 265°
2026-05-05 19:21 49.00820 2.56501 354 ft 16 kts 263°
2026-05-05 19:21 49.00808 2.56360 361 ft 11 kts 263°
2026-05-05 19:21 49.00800 2.56279 354 ft 5 kts 261°
2026-05-05 19:22 49.00791 2.56186 362 ft 12 kts 262°
2026-05-05 19:22 49.00783 2.56094 359 ft 6 kts 262°
2026-05-05 19:22 49.00777 2.56032 358 ft 11 kts 262°
2026-05-05 19:22 49.00760 2.55860 354 ft 18 kts 262°
2026-05-05 19:23 49.00744 2.55684 354 ft 15 kts 262°
2026-05-05 19:23 49.00733 2.55538 358 ft 12 kts 263°
2026-05-05 19:23 49.00727 2.55440 354 ft 6 kts 264°
2026-05-05 19:23 49.00719 2.55349 358 ft 13 kts 259°
2026-05-05 19:24 49.00669 2.55247 354 ft 10 kts 199°
2026-05-05 19:24 49.00619 2.55255 361 ft 6 kts 165°
2026-05-05 19:24 49.00538 2.55292 361 ft 17 kts 163°
2026-05-05 19:24 49.00440 2.55334 358 ft 12 kts 165°
2026-05-05 19:25 49.00345 2.55374 361 ft 17 kts 163°
2026-05-05 19:25 49.00244 2.55417 358 ft 12 kts 164°
2026-05-05 19:25 49.00154 2.55457 357 ft 18 kts 163°
2026-05-05 19:25 49.00032 2.55511 357 ft 17 kts 164°
2026-05-05 19:26 48.99939 2.55553 359 ft 13 kts 159°
2026-05-05 19:26 48.99858 2.55649 364 ft 16 kts 124°
2026-05-05 19:26 48.99812 2.55789 357 ft 13 kts 141°
2026-05-05 19:26 48.99735 2.55811 356 ft 10 kts 175°
2026-05-05 19:27 48.99674 2.55817 357 ft 9 kts 177°
2026-05-05 19:27 48.99608 2.55822 353 ft 5 kts 177°
2026-05-05 19:27 48.99599 2.55852 357 ft 5 kts 88°
2026-05-05 19:27 48.99609 2.56002 354 ft 40 kts 85°
2026-05-05 19:28 48.99651 2.56802 355 ft 108 kts 85°
2026-05-05 19:28 48.99727 2.58212 356 ft 158 kts 85°
2026-05-05 19:28 48.99804 2.59986 806 ft 168 kts 82°
2026-05-05 19:28 48.99883 2.61760 1609 ft 166 kts 82°
2026-05-05 19:29 48.99965 2.63508 2365 ft 164 kts 81°
2026-05-05 19:29 49.00062 2.65260 2992 ft 167 kts 82°
2026-05-05 19:29 49.00159 2.67007 3610 ft 168 kts 83°
2026-05-05 19:29 49.00255 2.68872 3979 ft 187 kts 83°
2026-05-05 19:30 49.00372 2.70939 4352 ft 205 kts 83°
2026-05-05 19:30 49.00487 2.73190 4768 ft 220 kts 84°
2026-05-05 19:30 49.00616 2.75631 5058 ft 244 kts 84°
2026-05-05 19:30 49.00681 2.78333 5473 ft 265 kts 95°
2026-05-05 19:31 49.00401 2.81156 6224 ft 272 kts 98°
2026-05-05 19:31 49.00101 2.84022 7011 ft 276 kts 100°
2026-05-05 19:31 48.99490 2.86768 7790 ft 280 kts 121°
2026-05-05 19:31 48.98189 2.88964 8603 ft 282 kts 146°
2026-05-05 19:32 48.96398 2.90120 9503 ft 281 kts 171°
2026-05-05 19:32 48.94448 2.90030 10261 ft 284 kts 195°
2026-05-05 19:32 48.92550 2.88950 10646 ft 302 kts 202°
2026-05-05 19:32 48.90558 2.87667 11036 ft 317 kts 204°
2026-05-05 19:33 48.88533 2.86335 11702 ft 322 kts 204°
2026-05-05 19:33 48.86461 2.84968 12449 ft 326 kts 204°
2026-05-05 19:33 48.84362 2.83599 13145 ft 331 kts 204°
2026-05-05 19:33 48.82228 2.82221 13818 ft 335 kts 204°
2026-05-05 19:34 48.80070 2.80842 14464 ft 338 kts 204°
2026-05-05 19:34 48.77889 2.79455 15123 ft 340 kts 203°
2026-05-05 19:34 48.75691 2.78057 15775 ft 343 kts 203°
2026-05-05 19:35 48.71284 2.75252 17033 ft 349 kts 202°
2026-05-05 19:35 48.68908 2.74321 17484 ft 357 kts 185°
2026-05-05 19:35 48.66422 2.74666 18063 ft 363 kts 165°
2026-05-05 19:35 48.64019 2.75929 18605 ft 366 kts 161°
2026-05-05 19:36 48.61617 2.77265 19152 ft 369 kts 160°
2026-05-05 19:36 48.59203 2.78620 19684 ft 372 kts 160°
2026-05-05 19:36 48.56763 2.79991 20224 ft 375 kts 160°
2026-05-05 19:36 48.54343 2.81342 20737 ft 377 kts 160°
2026-05-05 19:37 48.51863 2.82682 21279 ft 380 kts 161°
2026-05-05 19:37 48.49324 2.83915 21817 ft 383 kts 162°
2026-05-05 19:37 48.46756 2.85076 22344 ft 386 kts 163°
2026-05-05 19:37 48.44168 2.86212 22859 ft 389 kts 163°
2026-05-05 19:38 48.41553 2.87357 23360 ft 392 kts 162°
2026-05-05 19:38 48.38955 2.88509 23782 ft 395 kts 162°
2026-05-05 19:38 48.36315 2.89693 24201 ft 397 kts 162°
2026-05-05 19:38 48.33657 2.90892 24603 ft 399 kts 162°
2026-05-05 19:39 48.30982 2.92108 24987 ft 402 kts 162°
2026-05-05 19:39 48.28301 2.93332 25375 ft 404 kts 162°
2026-05-05 19:39 48.25602 2.94570 25755 ft 406 kts 162°
2026-05-05 19:39 48.22888 2.95813 26123 ft 408 kts 162°
2026-05-05 19:40 48.20158 2.97059 26484 ft 410 kts 162°
2026-05-05 19:40 48.17445 2.98289 26779 ft 413 kts 162°
2026-05-05 19:40 48.14729 2.99516 26828 ft 400 kts 163°
2026-05-05 19:40 48.12094 3.00703 26832 ft 390 kts 163°
2026-05-05 19:41 48.09509 3.01862 26838 ft 387 kts 163°
2026-05-05 19:41 48.06930 3.03017 26838 ft 386 kts 163°
2026-05-05 19:41 48.04385 3.04158 26838 ft 386 kts 163°
2026-05-05 19:41 48.01814 3.05315 26838 ft 386 kts 163°
2026-05-05 19:42 47.99237 3.06475 26839 ft 386 kts 163°
2026-05-05 19:42 47.96660 3.07635 26848 ft 386 kts 163°
2026-05-05 19:42 47.94088 3.08792 26840 ft 385 kts 163°
2026-05-05 19:42 47.91553 3.09930 26843 ft 385 kts 163°
2026-05-05 19:43 47.88985 3.11079 26847 ft 384 kts 163°
2026-05-05 19:43 47.86425 3.12222 26845 ft 384 kts 163°
2026-05-05 19:43 47.83866 3.13359 26849 ft 384 kts 163°
2026-05-05 19:43 47.81303 3.14500 26851 ft 384 kts 163°
2026-05-05 19:44 47.78736 3.15643 26848 ft 384 kts 163°
2026-05-05 19:44 47.76177 3.16784 26847 ft 384 kts 163°
2026-05-05 19:44 47.73614 3.17928 26855 ft 384 kts 163°
2026-05-05 19:44 47.71055 3.19068 26855 ft 384 kts 163°
2026-05-05 19:45 47.68494 3.20206 26851 ft 384 kts 163°
2026-05-05 19:45 47.65938 3.21337 26856 ft 384 kts 163°
2026-05-05 19:45 47.63368 3.22472 26854 ft 384 kts 163°
2026-05-05 19:45 47.60806 3.23601 26857 ft 384 kts 163°
2026-05-05 19:46 47.58245 3.24727 26865 ft 384 kts 163°
2026-05-05 19:46 47.55712 3.25842 26865 ft 384 kts 163°
2026-05-05 19:46 47.53155 3.26971 26870 ft 384 kts 164°
2026-05-05 19:46 47.50592 3.28105 26872 ft 383 kts 164°
2026-05-05 19:47 47.48032 3.29239 26870 ft 383 kts 164°
2026-05-05 19:47 47.45478 3.30368 26868 ft 383 kts 164°
2026-05-05 19:47 47.42915 3.31493 26867 ft 383 kts 164°
2026-05-05 19:47 47.40360 3.32611 26840 ft 383 kts 164°
2026-05-05 19:48 47.37843 3.33712 26858 ft 382 kts 165°
2026-05-05 19:48 47.35285 3.34831 26860 ft 382 kts 165°
2026-05-05 19:48 47.32737 3.35943 26861 ft 382 kts 165°
2026-05-05 19:48 47.30188 3.37057 26862 ft 381 kts 165°
2026-05-05 19:49 47.27638 3.38173 26867 ft 381 kts 165°
2026-05-05 19:49 47.25952 3.38911 26867 ft 381 kts 165°
2026-05-05 19:49 47.22548 3.40398 26869 ft 381 kts 165°
2026-05-05 19:49 47.20006 3.41504 26868 ft 381 kts 165°
2026-05-05 19:50 47.17460 3.42607 26867 ft 381 kts 165°
2026-05-05 19:50 47.14917 3.43707 26868 ft 381 kts 165°
2026-05-05 19:50 47.12408 3.44809 26866 ft 381 kts 165°
2026-05-05 19:50 47.09864 3.45938 26866 ft 381 kts 165°
2026-05-05 19:51 47.07329 3.47068 26866 ft 380 kts 165°
2026-05-05 19:51 47.04792 3.48194 26867 ft 380 kts 165°
2026-05-05 19:51 47.03111 3.48938 26866 ft 380 kts 165°
2026-05-05 19:51 47.00577 3.50059 26850 ft 380 kts 165°
2026-05-05 19:52 46.98072 3.51167 26609 ft 372 kts 165°
2026-05-05 19:52 46.95613 3.52254 26343 ft 365 kts 165°
2026-05-05 19:52 46.93186 3.53323 26083 ft 362 kts 166°
2026-05-05 19:52 46.90811 3.54363 25835 ft 360 kts 166°
2026-05-05 19:53 46.88408 3.55415 25581 ft 359 kts 166°
2026-05-05 19:53 46.86020 3.56459 25331 ft 357 kts 166°
2026-05-05 19:53 46.83644 3.57499 25084 ft 356 kts 166°
2026-05-05 19:53 46.81271 3.58539 24837 ft 355 kts 166°
2026-05-05 19:54 46.78914 3.59573 24598 ft 353 kts 166°
2026-05-05 19:54 46.76555 3.60606 24351 ft 352 kts 166°
2026-05-05 19:54 46.74236 3.61619 24117 ft 351 kts 166°
2026-05-05 19:54 46.71897 3.62639 23879 ft 350 kts 166°
2026-05-05 19:55 46.69570 3.63698 23640 ft 349 kts 164°
2026-05-05 19:55 46.67276 3.64885 23399 ft 349 kts 162°
2026-05-05 19:55 46.65008 3.66155 23121 ft 348 kts 161°
2026-05-05 19:55 46.62758 3.67455 22841 ft 347 kts 161°
2026-05-05 19:56 46.60513 3.68758 22560 ft 345 kts 161°
2026-05-05 19:56 46.58311 3.70020 22294 ft 344 kts 161°
2026-05-05 19:56 46.56080 3.71283 22019 ft 343 kts 161°
2026-05-05 19:56 46.53860 3.72527 21755 ft 341 kts 161°
2026-05-05 19:57 46.51643 3.73763 21476 ft 340 kts 161°
2026-05-05 19:57 46.49438 3.74987 21235 ft 339 kts 161°
2026-05-05 19:57 46.47247 3.76202 20933 ft 333 kts 161°
2026-05-05 19:57 46.45085 3.77403 20536 ft 331 kts 161°
2026-05-05 19:58 46.42967 3.78578 20129 ft 329 kts 161°
2026-05-05 19:58 46.40837 3.79758 19729 ft 327 kts 161°
2026-05-05 19:58 46.38715 3.80943 19309 ft 326 kts 159°
2026-05-05 19:58 46.36742 3.82553 18909 ft 327 kts 146°
2026-05-05 19:59 46.35080 3.84834 18605 ft 332 kts 130°
2026-05-05 19:59 46.33700 3.87479 18376 ft 333 kts 129°
2026-05-05 19:59 46.32305 3.90165 18132 ft 333 kts 129°
2026-05-05 19:59 46.31023 3.92941 17854 ft 334 kts 119°
2026-05-05 20:00 46.30022 3.95988 17580 ft 334 kts 118°
2026-05-05 20:00 46.29037 3.98991 17311 ft 332 kts 118°
2026-05-05 20:00 46.28046 4.02005 17030 ft 331 kts 118°
2026-05-05 20:00 46.27057 4.05008 16766 ft 330 kts 118°
2026-05-05 20:01 46.26069 4.08009 16502 ft 329 kts 118°
2026-05-05 20:01 46.25097 4.10958 16252 ft 328 kts 118°
2026-05-05 20:01 46.24105 4.13967 15987 ft 327 kts 118°
2026-05-05 20:01 46.23139 4.16894 15726 ft 326 kts 118°
2026-05-05 20:02 46.22163 4.19850 15488 ft 325 kts 118°
2026-05-05 20:02 46.21190 4.22793 15231 ft 324 kts 118°
2026-05-05 20:02 46.20218 4.25726 14986 ft 323 kts 118°
2026-05-05 20:02 46.19249 4.28649 14869 ft 322 kts 118°
2026-05-05 20:03 46.18289 4.31537 14887 ft 323 kts 118°
2026-05-05 20:03 46.17316 4.34466 14889 ft 323 kts 118°
2026-05-05 20:03 46.16344 4.37389 14892 ft 323 kts 118°
2026-05-05 20:03 46.15371 4.40315 14667 ft 323 kts 118°
2026-05-05 20:04 46.14371 4.43309 13887 ft 336 kts 118°
2026-05-05 20:04 46.13350 4.46368 13326 ft 339 kts 118°
2026-05-05 20:04 46.12327 4.49424 12862 ft 337 kts 118°
2026-05-05 20:04 46.11326 4.52414 12316 ft 332 kts 118°
2026-05-05 20:05 46.10326 4.55396 11692 ft 330 kts 118°
2026-05-05 20:05 46.09339 4.58336 11478 ft 320 kts 118°
2026-05-05 20:05 46.08384 4.61169 11309 ft 307 kts 118°
2026-05-05 20:05 46.07458 4.63904 10748 ft 301 kts 118°
2026-05-05 20:06 46.06544 4.66589 10171 ft 296 kts 118°
2026-05-05 20:06 46.05651 4.69211 9737 ft 287 kts 118°
2026-05-05 20:06 46.04773 4.71789 9331 ft 287 kts 118°
2026-05-05 20:06 46.03904 4.74339 8950 ft 285 kts 118°
2026-05-05 20:07 46.03031 4.76902 8552 ft 284 kts 118°
2026-05-05 20:07 46.02160 4.79446 8160 ft 283 kts 118°
2026-05-05 20:07 46.01292 4.81984 7774 ft 282 kts 118°
2026-05-05 20:07 46.00429 4.84513 7367 ft 281 kts 118°
2026-05-05 20:08 45.99568 4.87029 6960 ft 281 kts 118°
2026-05-05 20:08 45.98701 4.89559 6538 ft 281 kts 118°
2026-05-05 20:08 45.97838 4.92074 6109 ft 281 kts 118°
2026-05-05 20:08 45.96975 4.94586 5677 ft 280 kts 117°
2026-05-05 20:09 45.96119 4.97074 5423 ft 272 kts 117°
2026-05-05 20:09 45.95309 4.99431 5294 ft 260 kts 117°
2026-05-05 20:09 45.94525 5.01712 5163 ft 248 kts 117°
2026-05-05 20:09 45.93757 5.03904 4852 ft 245 kts 123°
2026-05-05 20:10 45.92650 5.05713 4553 ft 239 kts 144°
2026-05-05 20:10 45.91214 5.06833 4286 ft 232 kts 164°
2026-05-05 20:10 45.89660 5.07219 3993 ft 228 kts 177°
2026-05-05 20:10 45.88073 5.07409 3686 ft 227 kts 177°
2026-05-05 20:11 45.86508 5.07598 3386 ft 225 kts 176°
2026-05-05 20:11 45.84979 5.07786 3093 ft 215 kts 177°
2026-05-05 20:11 45.83519 5.07964 2813 ft 206 kts 176°
2026-05-05 20:11 45.82122 5.08135 2573 ft 195 kts 176°
2026-05-05 20:12 45.80797 5.08297 2292 ft 185 kts 176°
2026-05-05 20:12 45.79557 5.08448 2038 ft 171 kts 176°
2026-05-05 20:12 45.78448 5.08579 1873 ft 153 kts 176°
2026-05-05 20:12 45.77419 5.08703 1627 ft 144 kts 175°
2026-05-05 20:13 45.76427 5.08821 1445 ft 142 kts 176°
2026-05-05 20:13 45.75446 5.08939 1238 ft 141 kts 176°
2026-05-05 20:13 45.74467 5.09058 1036 ft 141 kts 176°
2026-05-05 20:13 45.73493 5.09192 832 ft 140 kts 176°
2026-05-05 20:14 45.72608 5.09297 809 ft 106 kts 175°
2026-05-05 20:14 45.72146 5.09354 816 ft 45 kts 175°
2026-05-05 20:14 45.71890 5.09371 820 ft 30 kts 185°
2026-05-05 20:14 45.71700 5.09291 820 ft 21 kts 203°
2026-05-05 20:15 45.71647 5.09231 818 ft 7 kts 241°
2026-05-05 20:15 45.71636 5.09142 814 ft 11 kts 263°
2026-05-05 20:15 45.71633 5.09118 814 ft 0 kts 263°
2026-05-05 20:17 45.71631 5.09089 814 ft 8 kts 263°
2026-05-05 20:17 45.71624 5.08978 810 ft 12 kts 265°
2026-05-05 20:17 45.71615 5.08844 813 ft 15 kts 264°
2026-05-05 20:18 45.71604 5.08685 807 ft 17 kts 264°
2026-05-05 20:18 45.71578 5.08534 803 ft 16 kts 225°
2026-05-05 20:18 45.71477 5.08519 805 ft 7 kts 175°
2026-05-05 20:18 45.71460 5.08519 806 ft 0 kts 179°
2026-05-05 20:19 45.71450 5.08519 807 ft 3 kts 179°
2026-05-05 20:19 45.71446 5.08519 807 ft 1 kts 179°
2026-05-05 20:19 45.71386 5.08529 811 ft 13 kts 174°
2026-05-05 20:20 45.71308 5.08540 813 ft 10 kts 174°
2026-05-05 20:20 45.71271 5.08545 813 ft 3 kts 176°
2026-05-05 20:20 45.71256 5.08547 814 ft 1 kts 176°
2026-05-05 20:20 45.71252 5.08547 814 ft 2 kts 176°
2026-05-05 20:21 45.71182 5.08557 809 ft 12 kts 166°
2026-05-05 20:21 45.71125 5.08617 818 ft 8 kts 127°
2026-05-05 20:21 45.71069 5.08657 815 ft 14 kts 178°
2026-05-05 20:21 45.71045 5.08624 816 ft 4 kts 271°
2026-05-05 20:22 45.71047 5.08575 816 ft 7 kts 273°
2026-05-05 20:22 45.71049 5.08522 813 ft 0 kts 273°